Iowa Falls, IA

3:52 AM CDT on March 26, 2017 (GMT -0500)
Iowa Falls Municipal

Weather History for KIFA - March, 2012

Change the Weather History Date:

Tuesday, March 20, 2012

  Actual Average Record
Temperature  
Mean Temperature 61 °F -  
Max Temperature 67 °F 45 °F 70 °F (1976)
Min Temperature 55 °F 27 °F -7 °F (1965)
Degree Days  
Heating Degree Days 4    
Growing Degree Days 11 (Base 50)    
Moisture  
Dew Point 55 °F    
Average Humidity 84    
Maximum Humidity 94    
Minimum Humidity 61    
Precipitation  
Precipitation 0.23 in - - ()
Sea Level Pressure  
Sea Level Pressure 29.86 in    
Wind  
Wind Speed 7 mph (SE)    
Max Wind Speed 14 mph    
Max Gust Speed -    
Visibility 10 miles    
Events Rain    
Averages and records for this station are not official NWS values.
T = Trace of Precipitation, MM = Missing Value Source: NWS Daily Summary

Daily Weather History Graph

Daily Weather History Graph

Search for Another Location

Airport or City:

Trip Planner

Search our weather history database for the weather conditions in past years. The results will help you decide how hot, cold, wet, or windy it might be!

Date:

Astronomy

Mar. 20, 2012 Rise Set
Actual Time 7:15 AM CDT 7:25 PM CDT
Civil Twilight 6:47 AM CDT 7:54 PM CDT
Nautical Twilight 6:14 AM CDT 8:27 PM CDT
Astronomical Twilight 5:40 AM CDT 9:00 PM CDT
Moon 5:59 AM CDT (3/20) 5:53 PM CDT (3/20)
Length of Visible Light 13h 06m
Length of Day
12h 10m
Waning Crescent, 4% of the Moon is Illuminated
Mar 20
Waning Crescent
Mar 22
New
Mar 30
First Quarter
Apr 6
Full
Apr 13
Last Quarter

Hourly Weather History & Observations

Time (CDT) Temp. Dew Point Humidity Pressure Visibility Wind Dir Wind Speed Gust Speed Precip Events Conditions
12:55 AM 58.3 °F 54.5 °F 87% 29.76 in 10.0 mi South 12.7 mph - N/A   Overcast
3:55 AM 56.7 °F 54.1 °F 91% 29.80 in 10.0 mi South 9.2 mph - N/A   Overcast
4:35 AM 56.7 °F 54.0 °F 91% 29.79 in 10.0 mi SE 6.9 mph - N/A   Overcast
4:55 AM 56.7 °F 53.8 °F 90% 29.80 in 10.0 mi SSE 4.6 mph - N/A Rain Light Rain
5:15 AM 56.3 °F 53.6 °F 91% 29.81 in 10.0 mi SE 5.8 mph - 0.01 in Rain Rain
5:35 AM 56.3 °F 53.6 °F 91% 29.81 in 10.0 mi SSE 5.8 mph - 0.01 in   Light Drizzle
5:55 AM 55.8 °F 53.6 °F 92% 29.81 in 10.0 mi SE 3.5 mph - 0.01 in   Overcast
6:15 AM 55.4 °F 53.2 °F 92% 29.82 in 10.0 mi ESE 5.8 mph - N/A   Overcast
6:35 AM 55.4 °F 53.6 °F 94% 29.84 in 10.0 mi SE 3.5 mph - N/A   Overcast
6:55 AM 55.6 °F 53.6 °F 93% 29.84 in 10.0 mi SE 3.5 mph - N/A   Drizzle
7:15 AM 55.6 °F 53.6 °F 93% 29.85 in 10.0 mi South 4.6 mph - N/A Rain Rain
7:35 AM 55.4 °F 53.4 °F 93% 29.84 in 10.0 mi ESE 4.6 mph - N/A Rain Light Rain
7:55 AM 55.4 °F 53.6 °F 94% 29.84 in 7.0 mi SE 4.6 mph - N/A   Mostly Cloudy
8:15 AM 55.8 °F 54.0 °F 94% 29.84 in 10.0 mi SE 8.1 mph - N/A   Mostly Cloudy
8:35 AM 56.3 °F 54.5 °F 94% 29.84 in 10.0 mi SE 6.9 mph - N/A   Overcast
9:35 AM 56.7 °F 54.7 °F 93% 29.87 in 10.0 mi South 5.8 mph - N/A   Overcast
9:55 AM 56.8 °F 54.9 °F 93% 29.89 in 10.0 mi South 5.8 mph - N/A   Overcast
10:15 AM 57.2 °F 55.2 °F 93% 29.89 in 10.0 mi South 3.5 mph - N/A   Overcast
10:35 AM 57.7 °F 55.4 °F 92% 29.90 in 10.0 mi South 6.9 mph - N/A   Overcast
10:55 AM 58.6 °F 55.9 °F 91% 29.90 in 10.0 mi South 5.8 mph - N/A   Overcast
11:15 AM 59.0 °F 55.4 °F 88% 29.92 in 10.0 mi South 8.1 mph - N/A   Overcast
11:35 AM 59.2 °F 54.9 °F 86% 29.91 in 10.0 mi SSE 6.9 mph - N/A   Overcast
11:55 AM 59.9 °F 54.7 °F 83% 29.91 in 10.0 mi SSE 6.9 mph - N/A   Overcast
12:15 PM 61.2 °F 54.9 °F 80% 29.90 in 10.0 mi South 4.6 mph - N/A   Overcast
12:35 PM 62.8 °F 54.3 °F 74% 29.89 in 10.0 mi Calm Calm - N/A   Mostly Cloudy
12:55 PM 63.7 °F 54.7 °F 72% 29.89 in 10.0 mi West 3.5 mph - N/A   Scattered Clouds
1:55 PM 65.3 °F 52.3 °F 63% 29.88 in 10.0 mi Calm Calm - N/A   Mostly Cloudy
2:15 PM 65.1 °F 53.6 °F 66% 29.88 in 10.0 mi SE 5.8 mph - N/A   Mostly Cloudy
2:35 PM 64.9 °F 53.1 °F 65% 29.88 in 10.0 mi ESE 5.8 mph - N/A   Overcast
2:55 PM 64.4 °F 53.2 °F 67% 29.88 in 10.0 mi SE 5.8 mph - N/A   Overcast
3:15 PM 64.9 °F 52.9 °F 65% 29.86 in 10.0 mi ESE 3.5 mph - N/A   Overcast
3:35 PM 66.4 °F 53.1 °F 62% 29.86 in 10.0 mi ESE 3.5 mph - N/A   Overcast
3:55 PM 66.7 °F 53.1 °F 61% 29.86 in 10.0 mi Calm Calm - N/A   Mostly Cloudy
4:15 PM 65.8 °F 52.9 °F 63% 29.85 in 10.0 mi East 5.8 mph - N/A   Mostly Cloudy
4:35 PM 67.1 °F 53.6 °F 62% 29.84 in 10.0 mi East 6.9 mph - N/A   Mostly Cloudy
4:55 PM 66.4 °F 53.6 °F 63% 29.82 in 10.0 mi NE 8.1 mph - N/A   Scattered Clouds
5:15 PM 66.6 °F 54.7 °F 66% 29.83 in 10.0 mi ENE 5.8 mph - N/A   Mostly Cloudy
5:35 PM 65.8 °F 54.9 °F 68% 29.84 in 10.0 mi NE 4.6 mph - N/A   Overcast
5:55 PM 65.7 °F 55.2 °F 69% 29.84 in 10.0 mi NNE 5.8 mph - N/A   Overcast
6:15 PM 65.3 °F 55.9 °F 72% 29.84 in 10.0 mi NNE 3.5 mph - N/A Rain Light Rain
6:35 PM 64.4 °F 56.8 °F 76% 29.84 in 10.0 mi NNE 4.6 mph - 0.01 in Rain Light Rain
6:55 PM 63.0 °F 57.6 °F 82% 29.85 in 10.0 mi Calm Calm - 0.01 in Rain Light Rain
7:15 PM 62.4 °F 57.9 °F 85% 29.86 in 10.0 mi Calm Calm - 0.02 in Rain Rain
7:35 PM 62.1 °F 58.1 °F 87% 29.87 in 7.0 mi ENE 4.6 mph - 0.08 in Rain Rain
7:55 PM 61.7 °F 58.5 °F 89% 29.88 in 7.0 mi Calm Calm - 0.12 in Rain Rain
8:15 PM 61.2 °F 58.8 °F 92% 29.88 in 5.0 mi ENE 6.9 mph - 0.04 in Rain Rain
8:35 PM 61.0 °F 59.0 °F 93% 29.88 in 5.0 mi East 8.1 mph - 0.08 in Rain Rain
8:55 PM 61.0 °F 59.0 °F 93% 29.88 in 7.0 mi East 9.2 mph - 0.09 in Rain Light Rain
9:15 PM 60.8 °F 59.0 °F 94% 29.89 in 10.0 mi ESE 6.9 mph - N/A Rain Light Rain
9:35 PM 60.8 °F 59.0 °F 94% 29.89 in 10.0 mi SE 8.1 mph - N/A   Overcast
9:55 PM 60.8 °F 58.5 °F 92% 29.89 in 10.0 mi SE 8.1 mph - N/A   Mostly Cloudy
10:15 PM 60.3 °F 58.3 °F 93% 29.89 in 10.0 mi SE 8.1 mph - N/A   Overcast
10:35 PM 59.9 °F 58.1 °F 94% 29.89 in 10.0 mi ESE 8.1 mph - N/A   Mostly Cloudy
10:55 PM 59.5 °F 57.7 °F 94% 29.89 in 10.0 mi SE 10.4 mph - N/A   Scattered Clouds
11:15 PM 59.4 °F 57.6 °F 94% 29.89 in 10.0 mi SE 11.5 mph - N/A   Mostly Cloudy
11:35 PM 59.4 °F 57.6 °F 94% 29.90 in 10.0 mi SE 13.8 mph - N/A   Overcast
11:55 PM 59.5 °F 57.6 °F 93% 29.92 in 10.0 mi SSE 13.8 mph - N/A   Overcast